Pompano Beach, FL

5:43 AM EST on February 19, 2018 (GMT -0500)
Pompano Beach

Weather History for KPMP - October, 2012

Change the Weather History Date:

Sunday, October 21, 2012

  Actual Average Record
Temperature  
Mean Temperature 76 °F -  
Max Temperature 82 °F 85 °F 93 °F (1980)
Min Temperature 70 °F 69 °F 50 °F (1961)
Cooling Degree Days 11    
Growing Degree Days 26 (Base 50)    
Moisture  
Dew Point 65 °F    
Average Humidity 72    
Maximum Humidity 97    
Minimum Humidity 52    
Precipitation  
Precipitation 0.00 in - - ()
Sea Level Pressure  
Sea Level Pressure 29.96 in    
Wind  
Wind Speed 7 mph (NNE)    
Max Wind Speed 15 mph    
Max Gust Speed 22 mph    
Visibility 10 miles    
Events      
Averages and records for this station are not official NWS values.
T = Trace of Precipitation, MM = Missing Value Source: NWS Daily Summary

Daily Weather History Graph

Daily Weather History Graph

Search for Another Location

Airport or City:

Trip Planner

Search our weather history database for the weather conditions in past years. The results will help you decide how hot, cold, wet, or windy it might be!

Date:

Astronomy

Oct. 21, 2012 Rise Set
Actual Time 7:23 AM EDT 6:46 PM EDT
Civil Twilight 6:59 AM EDT 7:09 PM EDT
Nautical Twilight 6:32 AM EDT 7:36 PM EDT
Astronomical Twilight 6:05 AM EDT 8:03 PM EDT
Moon 1:31 PM EDT (10/21) No Moon Set
Length of Visible Light 12h 10m
Length of Day
11h 23m
Waxing Crescent, 45% of the Moon is Illuminated
Oct 21
Waxing Crescent
Oct 21
First Quarter
Oct 29
Full
Nov 6
Last Quarter
Nov 13
New

Hourly Weather History & Observations

Time (EDT) Temp. Heat Index Dew Point Humidity Pressure Visibility Wind Dir Wind Speed Gust Speed Precip Events Conditions
12:30 AM 73.4 °F - 71.6 °F 94% 29.93 in 10.0 mi Calm Calm - N/A   Mostly Cloudy
12:41 AM 73.4 °F - 71.6 °F 94% 29.93 in 10.0 mi Calm Calm - N/A   Scattered Clouds
12:53 AM 73.0 °F - 71.1 °F 93% 29.94 in 10.0 mi NW 4.6 mph - N/A   Scattered Clouds
1:53 AM 72.0 °F - 71.1 °F 97% 29.92 in 10.0 mi NNW 6.9 mph - N/A   Clear
2:53 AM 71.1 °F - 70.0 °F 96% 29.92 in 10.0 mi NNW 3.5 mph - N/A   Scattered Clouds
3:06 AM 71.6 °F - 69.8 °F 94% 29.91 in 10.0 mi NNW 4.6 mph - N/A   Mostly Cloudy
3:22 AM 71.6 °F - 69.8 °F 94% 29.91 in 10.0 mi North 5.8 mph - N/A   Scattered Clouds
3:53 AM 71.1 °F - 70.0 °F 96% 29.91 in 10.0 mi NNW 5.8 mph - N/A   Clear
4:53 AM 71.1 °F - 69.1 °F 93% 29.91 in 10.0 mi North 6.9 mph - N/A   Clear
6:53 AM 70.0 °F - 61.0 °F 73% 29.95 in 10.0 mi North 9.2 mph - N/A   Clear
7:53 AM 71.1 °F - 60.1 °F 68% 29.96 in 10.0 mi North 8.1 mph - N/A   Clear
8:53 AM 73.9 °F - 63.0 °F 68% 29.98 in 10.0 mi North 6.9 mph - N/A   Clear
9:53 AM 77.0 °F - 64.0 °F 64% 30.00 in 10.0 mi North 8.1 mph - N/A   Scattered Clouds
10:53 AM 79.0 °F - 64.0 °F 60% 30.01 in 10.0 mi NNE 12.7 mph - N/A   Mostly Cloudy
11:53 AM 82.0 °F 83.4 °F 64.0 °F 54% 30.01 in 10.0 mi NNE 12.7 mph 21.9 mph N/A   Partly Cloudy
12:53 PM 81.0 °F 82.2 °F 63.0 °F 54% 30.00 in 10.0 mi NE 15.0 mph - N/A   Scattered Clouds
1:53 PM 82.0 °F 83.4 °F 64.0 °F 54% 29.98 in 10.0 mi NE 11.5 mph - N/A   Partly Cloudy
2:53 PM 80.1 °F 81.2 °F 62.1 °F 54% 29.96 in 10.0 mi NE 12.7 mph - N/A   Clear
3:53 PM 81.0 °F 81.9 °F 62.1 °F 52% 29.96 in 10.0 mi NE 13.8 mph - N/A   Clear
4:53 PM 79.0 °F - 61.0 °F 54% 29.95 in 10.0 mi NNE 15.0 mph - N/A   Partly Cloudy
5:53 PM 78.1 °F - 62.1 °F 58% 29.96 in 10.0 mi NE 15.0 mph - N/A   Partly Cloudy
6:53 PM 75.9 °F - 62.1 °F 62% 29.99 in 10.0 mi NE 10.4 mph - N/A   Partly Cloudy
7:53 PM 75.9 °F - 61.0 °F 60% 30.00 in 10.0 mi NE 13.8 mph - N/A   Partly Cloudy
8:53 PM 75.0 °F - 61.0 °F 62% 30.00 in 10.0 mi NE 12.7 mph - N/A   Partly Cloudy
9:53 PM 75.0 °F - 62.1 °F 64% 30.01 in 10.0 mi NE 10.4 mph - N/A   Clear
10:53 PM 75.0 °F - 61.0 °F 62% 30.01 in 10.0 mi NE 11.5 mph - N/A   Clear
11:53 PM 73.9 °F - 62.1 °F 66% 30.01 in 10.0 mi ENE 9.2 mph - N/A   Clear